Tracking 26198 objects as of 1-Oct-2022
HD Live streaming from Space Station
objects crossing your sky now

DELTA 1 DEB

Track DELTA 1 DEB now!
10-day predictions


NORAD ID: 720
Int'l Code: 1963-054C
Perigee: 660.2 km
Apogee: 822.3 km
Inclination: 58.5 °
Period: 99.5 minutes
Semi major axis: 7112 km
RCS: 0.0483 m2 (small)
Launch date: December 21, 1963
Source: United States (US)
Launch site: AIR FORCE WESTERN TEST RANGE (AFWTR)

Note: This is SATELLITE DEBRIS
aabbcc
Your satellite tracking list
Your tracking list is empty




NASA's NSSDC Master Catalog

Two Line Element Set (TLE):
1 00720U 63054C   22273.37993357  .00000169  00000-0  85101-4 0  9994
2 00720  58.4715 287.3070 0114001 157.3817 203.2293 14.47413746 84977
Source of the keplerian elements: AFSPC